Regional Weather Roundup
Issued by NWS Green Bay, WI

Home | Current Version | Previous Version | Text Only | Print | Product List | Glossary On
Versions: 1 2 3 4 5 6 7 8 9 10 11 12 13 14 15 16 17 18 19 20 21 22 23 24 25 26 27 28 29 30 31 32 33 34 35 36 37 38 39 40 41 42 43 44 45 46 47 48 49 50
000
ASUS43 KGRB 040111
RWRGRB

NORTH-CENTRAL AND NORTHEAST WISCONSIN REGIONAL WEATHER ROUNDUP
NATIONAL WEATHER SERVICE GREEN BAY WI
800 PM CDT TUE MAY 03 2016

WIZ005-009-010>012-018-019-040200-
NORTH CENTRAL WISCONSIN

CITY           SKY/WX    TMP DP  RH WIND       PRES   REMARKS
IRONWOOD         N/A     54  36  50 N7        29.69R
MANITOWISH WTR PTCLDY    51  37  60 N5        29.70R
ARBOR VITAE    PTCLDY    52  42  68 N5        29.69S
EAGLE RIVER    CLEAR     48  40  75 N3        29.70R
LAND O LAKES   CLEAR     48  39  69 N5        29.71R
RHINELANDER    MOCLDY    50  41  71 CALM      29.70R
PHILLIPS       CLEAR     51  46  84 NE5       29.69S
ANTIGO         CLOUDY    45  43  92 CALM      29.71S
TOMAHAWK       CLOUDY    46  45  94 CALM      29.71R
MERRILL        MOCLDY    46  46 100 CALM      29.71R
$$

WIZ013-073-040200-
NORTHEAST WISCONSIN

CITY           SKY/WX    TMP DP  RH WIND       PRES   REMARKS
IRON MOUNTAIN  CLOUDY    47  44  90 CALM      29.68R
MARINETTE      CLOUDY    50  49  96 CALM      29.69S
OCONTO         CLOUDY    51  51 100 CALM      29.68F
$$

WIZ017-030-035>037-045-040200-
CENTRAL WISCONSIN

CITY           SKY/WX    TMP DP  RH WIND       PRES   REMARKS
MEDFORD        MOCLDY    48  48  99 E5        29.70R
WAUSAU         CLOUDY    49  45  86 NE3       29.69R
MOSINEE        PTCLDY    48  48 100 E8        29.69S
MARSHFIELD     CLOUDY    51  46  83 SE3       29.67F
WISC RAPIDS    RAIN      50  47  89 SE9       29.70R FOG
STEVENS POINT  LGT RAIN  48  47  94 NE3       29.71R
WAUPACA        LGT RAIN  57  45  65 N10G29    29.70R
SHAWANO        RAIN      53  49  87 W3        29.71R
CLINTONVILLE   LGT RAIN  52  46  82 NW8       29.71R
WAUTOMA        CLOUDY    58  43  57 S5        29.65F
$$

WIZ038-039-048-051-040200-
FOX VALLEY

CITY           SKY/WX    TMP DP  RH WIND       PRES   REMARKS
NWS GREEN BAY  CLOUDY    54  46  74 N6        29.68F
APPLETON       CLOUDY    55  43  62 VRB6      29.66F
OSHKOSH        LGT RAIN  56  45  66 SW5       29.67F
FOND DU LAC    LGT RAIN  58  44  60 W12       29.69R
$$

WIZ022-050-052-040200-
EAST CENTRAL WISCONSIN

CITY           SKY/WX    TMP DP  RH WIND       PRES   REMARKS
EPHRAIM        LGT RAIN  48  48  98 SE3       29.68S
STURGEON BAY   CLOUDY    50  45  81 CALM      29.71F
MANITOWOC      LGT RAIN  57  43  59 NW14G26   29.70R
SHEBOYGAN      LGT RAIN  58  42  55 W14G24    29.70R
$$

LMZ563-521-522-541>543-040200-
LAKESHORE

STATION/POSITION TIME  TEMP    WIND        PRES    VSBY  WAVE
                       AIR SEA DIR/SP/G                  HT/PER
                 (UTC) (F)     (DEG/KT/KT) (MB)    (MI)  (FT/S)
SHEBOYGAN LKSHOR 0100   60     310/ 13/ 15 1005.8R
KEWAUNEE LKSHORE 0000                      1004.5R
ALGOMA MARINA    0015           40/ 11/ 14   N/A
NORTHPORT PIER   0100   49     170/  2/ 19 1005.1F
N MID LAKE BUOY  0050   42 39  160/  8/  8 1005.6F         2/ 5
CHAMBERS ISLAND  0040   48     120/  6/  8 1005.1F
MENOMINEE LKSHOR 0000                      1004.2F
$$




USA.gov is the U.S. government's official web portal to all federal, state and local government web resources and services.